Hourly Data Report for October 05, 2017

All times are specified in Local Standard Time (LST). Add 1 hour to adjust for Daylight Saving Time where and when it is observed.

CORAL HARBOUR A
NUNAVUT

64°11'36.000" N
83°21'34.000" W
62.20 m
2301002
71915
YZS

Download Data

Hourly Data (October 2017)
Hourly Data Report for October 5, 2017
Temp Definition
°C
Dew Point Temp Definition
°C
Rel Hum Definition
%
Wind Dir Definition
10's deg

Wind Spd Definition
km/h
Visibility Definition
km
Stn Press Definition
kPa
Hmdx Definition


Wind Chill Definition


Weather Definition


TIME
00:00 Legend Double Dagger -3.0 -4.4 90 23 16 19.3 97.64   -8 Snow
01:00 Legend Double Dagger -2.5 -3.7 92 23 17 24.1 97.60   -8 Snow
02:00 Legend Double Dagger -4.0 -6.5 82 30 21 24.1 97.62   -10 Snow
03:00 Legend Double Dagger -5.9 -8.2 84 31 19 24.1 97.65   -13 LegendNANA
04:00 Legend Double Dagger -7.0 -9.8 81 32 22 24.1 97.66   -14 Mostly Cloudy
05:00 Legend Double Dagger -7.6 -10.2 81 31 17 24.1 97.70   -14 LegendNANA
06:00 Legend Double Dagger -6.4 -8.8 83 31 16 24.1 97.73   -13 LegendNANA
07:00 Legend Double Dagger -8.0 -10.3 84 32 13 24.1 97.77   -14 Mostly Cloudy
08:00 Legend Double Dagger -9.3 -11.2 86 33 8 24.1 97.77   -14 LegendNANA
09:00 Legend Double Dagger -8.9 -11.4 82 34 12 24.1 97.80   -15 LegendNANA
10:00 Legend Double Dagger -8.7 -11.5 80 33 10 24.1 97.81   -14 Mainly Clear
11:00 Legend Double Dagger -7.0 -9.7 81 33 10 24.1 97.79   -12 LegendNANA
12:00 Legend Double Dagger -6.6 -9.1 83 1 10 24.1 97.78   -11 LegendNANA
13:00 Legend Double Dagger -6.2 -8.2 86 5 14 24.1 97.81   -12 Mainly Clear
14:00 Legend Double Dagger -6.5 -7.8 90 7 16 24.1 97.85   -13 LegendNANA
15:00 Legend Double Dagger -5.9 -8.4 83 7 17 24.1 97.84   -12 Snow
16:00 Legend Double Dagger -5.6 -7.7 85 7 14 24.1 97.88   -11 Snow
17:00 Legend Double Dagger -5.8 -8.4 83 7 18 24.1 97.92   -12 Snow
18:00 Legend Double Dagger -9.7 -11.6 86 4 22 24.1 97.97   -18 LegendNANA
19:00 Legend Double Dagger -10.6 -13.6 79 33 13 24.1 98.02   -17 Mostly Cloudy
20:00 Legend Double Dagger -12.2 -14.3 84 32 17 24.1 98.04   -20 LegendNANA
21:00 Legend Double Dagger -11.2 -13.3 84 1 20 24.1 98.05   -19 LegendNANA
22:00 Legend Double Dagger -12.3 -14.1 87 33 16 24.1 98.06   -20 Mainly Clear
23:00 Legend Double Dagger -7.9 -9.9 85 36 16 24.1 98.08   -14 LegendNANA

Notes on Data Quality.

Legend

  • E = Estimated
  • M = Missing
  • NA = Not Available
  • ‡ = Partner data that is not subject to review by the National Climate Archives
Date modified: